| time (UTC) | temp F | wind direction | speed MPH | gust MPH | rain 1hr in | rain 24hr in | rain mn in | humidity % | barometer mb |
| 20260507104602 | 49 | 0 | 0.0 | 2.0 | 0.00 | 0.28 | 0.06 | 74 | 1011.9 |
| 20260507103127 | 49 | 0 | 0.0 | 2.0 | 0.00 | 0.28 | 0.06 | 74 | 1011.8 |
| 20260507101553 | 49 | 0 | 0.0 | 0.0 | 0.00 | 0.28 | 0.06 | 74 | 1011.4 |
| 20260507100106 | 50 | 0 | 0.0 | 0.0 | 0.00 | 0.28 | 0.06 | 74 | 1011.3 |
| 20260507094552 | 50 | 0 | 0.0 | 2.0 | 0.00 | 0.28 | 0.06 | 73 | 1011.5 |
| 20260507093055 | 50 | 0 | 0.0 | 2.0 | 0.00 | 0.28 | 0.06 | 73 | 1011.3 |
| 20260507091556 | 50 | 0 | 0.0 | 6.0 | 0.00 | 0.28 | 0.06 | 74 | 1011.2 |
| 20260507090059 | 50 | 0 | 2.0 | 5.0 | 0.01 | 0.28 | 0.06 | 78 | 1011.2 |
| 20260507084604 | 50 | 9 | 0.0 | 5.0 | 0.01 | 0.28 | 0.06 | 85 | 1011.2 |
| 20260507083054 | 51 | 0 | 0.0 | 2.0 | 0.01 | 0.28 | 0.06 | 86 | 1011.0 |
| 20260507081559 | 51 | 40 | 1.0 | 4.0 | 0.01 | 0.28 | 0.06 | 86 | 1010.8 |
| 20260507080055 | 51 | 49 | 1.0 | 5.0 | 0.00 | 0.27 | 0.05 | 86 | 1010.8 |
| 20260507074555 | 51 | 0 | 0.0 | 0.0 | 0.00 | 0.27 | 0.05 | 86 | 1010.8 |
| 20260507073052 | 51 | 0 | 0.0 | 2.0 | 0.01 | 0.27 | 0.05 | 86 | 1010.6 |
| 20260507071557 | 51 | 0 | 0.0 | 2.0 | 0.01 | 0.27 | 0.05 | 85 | 1010.9 |
| 20260507070105 | 51 | 0 | 0.0 | 2.0 | 0.01 | 0.27 | 0.05 | 85 | 1011.2 |
| 20260507064557 | 51 | 38 | 0.0 | 3.0 | 0.02 | 0.27 | 0.05 | 84 | 1011.2 |
| 20260507063051 | 52 | 0 | 0.0 | 2.0 | 0.01 | 0.26 | 0.04 | 84 | 1011.2 |
| 20260507061554 | 52 | 0 | 0.0 | 5.0 | 0.01 | 0.26 | 0.04 | 84 | 1011.3 |
| 20260507054613 | 52 | 13 | 0.0 | 2.0 | 0.01 | 0.25 | 0.03 | 86 | 1011.0 |
| 20260507053106 | 52 | 0 | 0.0 | 2.0 | 0.02 | 0.25 | 0.03 | 86 | 1010.9 |
| 20260507051600 | 52 | 0 | 0.0 | 2.0 | 0.02 | 0.25 | 0.03 | 86 | 1011.0 |
| 20260507050059 | 53 | 0 | 0.0 | 3.0 | 0.02 | 0.24 | 0.02 | 86 | 1011.0 |
| 20260507044557 | 53 | 315 | 1.0 | 6.0 | 0.02 | 0.24 | 0.02 | 86 | 1011.0 |
| 20260507043053 | 53 | 321 | 1.0 | 4.0 | 0.01 | 0.23 | 0.01 | 87 | 1011.1 |
| 20260507041602 | 53 | 0 | 0.0 | 7.0 | 0.01 | 0.23 | 0.01 | 86 | 1010.7 |
| 20260507040056 | 55 | 325 | 0.0 | 5.0 | 0.00 | 0.22 | 0.00 | 84 | 1010.6 |
| 20260507034600 | 56 | 298 | 1.0 | 6.0 | 0.00 | 0.22 | 0.22 | 81 | 1010.6 |
| 20260507033057 | 56 | 347 | 2.0 | 4.0 | 0.00 | 0.22 | 0.22 | 81 | 1010.7 |
| 20260507031553 | 56 | 340 | 0.0 | 4.0 | 0.00 | 0.22 | 0.22 | 81 | 1010.8 |
| 20260507030054 | 57 | 0 | 1.0 | 7.0 | 0.00 | 0.22 | 0.22 | 81 | 1010.4 |
| 20260507024554 | 57 | 299 | 0.0 | 5.0 | 0.00 | 0.22 | 0.22 | 81 | 1010.2 |
| 20260507023052 | 57 | 332 | 2.0 | 9.0 | 0.01 | 0.22 | 0.22 | 81 | 1010.3 |
| 20260507021608 | 58 | 325 | 2.0 | 9.0 | 0.01 | 0.22 | 0.22 | 83 | 1010.2 |
| 20260507020109 | 58 | 0 | 0.0 | 3.0 | 0.02 | 0.22 | 0.22 | 85 | 1010.1 |
| 20260507014618 | 59 | 0 | 0.0 | 2.0 | 0.02 | 0.22 | 0.22 | 86 | 1010.1 |
| 20260507013053 | 59 | 0 | 0.0 | 3.0 | 0.01 | 0.21 | 0.21 | 85 | 1009.9 |
| 20260507011601 | 60 | 0 | 0.0 | 4.0 | 0.01 | 0.21 | 0.21 | 86 | 1009.9 |
| 20260507010056 | 61 | 0 | 0.0 | 3.0 | 0.00 | 0.20 | 0.20 | 85 | 1010.1 |
| 20260507004553 | 61 | 0 | 0.0 | 6.0 | 0.00 | 0.20 | 0.20 | 84 | 1010.0 |
| 20260507003056 | 62 | 304 | 2.0 | 11.0 | 0.00 | 0.20 | 0.20 | 83 | 1009.7 |
| 20260507001605 | 63 | 288 | 2.0 | 7.0 | 0.00 | 0.20 | 0.20 | 84 | 1009.6 |
| 20260507000118 | 64 | 0 | 1.0 | 3.0 | 0.00 | 0.20 | 0.20 | 85 | 1009.0 |
| 20260506234618 | 64 | 0 | 0.0 | 2.0 | 0.00 | 0.20 | 0.20 | 85 | 1008.3 |
| 20260506233054 | 64 | 0 | 0.0 | 3.0 | 0.00 | 0.20 | 0.20 | 85 | 1008.5 |
| 20260506231555 | 65 | 0 | 0.0 | 3.0 | 0.00 | 0.20 | 0.20 | 84 | 1008.3 |
| 20260506224557 | 65 | 0 | 0.0 | 4.0 | 0.00 | 0.20 | 0.20 | 84 | 1008.3 |
| 20260506223104 | 65 | 248 | 0.0 | 6.0 | 0.00 | 0.20 | 0.20 | 83 | 1008.2 |
| 20260506221603 | 65 | 247 | 3.0 | 6.0 | 0.00 | 0.20 | 0.20 | 82 | 1008.2 |
| 20260506220053 | 65 | 271 | 2.0 | 4.0 | 0.00 | 0.20 | 0.20 | 84 | 1008.1 |
| 20260506214600 | 65 | 0 | 0.0 | 3.0 | 0.00 | 0.20 | 0.20 | 84 | 1008.2 |
| 20260506213058 | 65 | 241 | 0.0 | 3.0 | 0.00 | 0.20 | 0.20 | 83 | 1008.1 |
| 20260506211555 | 65 | 248 | 0.0 | 4.0 | 0.00 | 0.20 | 0.20 | 83 | 1007.7 |
| 20260506210100 | 65 | 0 | 1.0 | 8.0 | 0.00 | 0.20 | 0.20 | 82 | 1007.5 |
| 20260506204559 | 65 | 269 | 3.0 | 6.0 | 0.00 | 0.20 | 0.20 | 81 | 1007.5 |
| 20260506203056 | 66 | 250 | 2.0 | 7.0 | 0.00 | 0.20 | 0.20 | 81 | 1007.7 |
| 20260506201558 | 65 | 253 | 4.0 | 11.0 | 0.00 | 0.20 | 0.20 | 81 | 1007.5 |
| 20260506200057 | 66 | 269 | 3.0 | 12.0 | 0.00 | 0.20 | 0.20 | 81 | 1007.7 |
| 20260506194601 | 66 | 255 | 5.0 | 13.0 | 0.00 | 0.20 | 0.20 | 80 | 1007.6 |
| 20260506193059 | 66 | 259 | 6.0 | 11.0 | 0.00 | 0.20 | 0.20 | 81 | 1007.5 |
| 20260506191605 | 66 | 263 | 4.0 | 15.0 | 0.00 | 0.20 | 0.20 | 82 | 1007.7 |
| 20260506184559 | 65 | 244 | 6.0 | 10.0 | 0.00 | 0.20 | 0.20 | 81 | 1007.8 |
| 20260506183104 | 65 | 209 | 9.0 | 14.0 | 0.00 | 0.20 | 0.20 | 81 | 1007.8 |
| 20260506181605 | 65 | 263 | 6.0 | 12.0 | 0.00 | 0.20 | 0.20 | 82 | 1007.9 |
| 20260506180058 | 64 | 278 | 4.0 | 12.0 | 0.00 | 0.20 | 0.20 | 85 | 1008.1 |
| 20260506174553 | 62 | 200 | 5.0 | 12.0 | 0.00 | 0.20 | 0.20 | 85 | 1008.2 |
| 20260506173120 | 62 | 257 | 6.0 | 11.0 | 0.00 | 0.20 | 0.20 | 86 | 1008.3 |
| 20260506171559 | 61 | 248 | 3.0 | 13.0 | 0.00 | 0.20 | 0.20 | 87 | 1008.2 |
| 20260506170106 | 61 | 246 | 3.0 | 11.0 | 0.00 | 0.20 | 0.20 | 87 | 1008.2 |
| 20260506164553 | 60 | 235 | 6.0 | 13.0 | 0.01 | 0.20 | 0.20 | 87 | 1008.4 |
| 20260506163056 | 61 | 256 | 3.0 | 10.0 | 0.01 | 0.20 | 0.20 | 87 | 1008.3 |
| 20260506161553 | 60 | 284 | 4.0 | 11.0 | 0.02 | 0.20 | 0.20 | 87 | 1008.4 |
| 20260506160055 | 60 | 225 | 5.0 | 11.0 | 0.04 | 0.20 | 0.20 | 88 | 1008.6 |
| 20260506154610 | 60 | 256 | 7.0 | 12.0 | 0.04 | 0.19 | 0.19 | 88 | 1008.4 |
| 20260506153054 | 60 | 213 | 5.0 | 11.0 | 0.04 | 0.19 | 0.19 | 89 | 1008.1 |
| 20260506151555 | 60 | 236 | 5.0 | 12.0 | 0.04 | 0.18 | 0.18 | 89 | 1008.4 |
| 20260506150051 | 59 | 248 | 5.0 | 10.0 | 0.03 | 0.16 | 0.16 | 89 | 1008.8 |
| 20260506144559 | 59 | 236 | 5.0 | 10.0 | 0.03 | 0.15 | 0.15 | 88 | 1009.4 |
| 20260506143051 | 60 | 211 | 5.0 | 11.0 | 0.05 | 0.15 | 0.15 | 88 | 1009.0 |
| 20260506141555 | 60 | 248 | 4.0 | 10.0 | 0.06 | 0.14 | 0.14 | 88 | 1009.1 |
| 20260506140053 | 59 | 247 | 7.0 | 14.0 | 0.07 | 0.13 | 0.13 | 88 | 1008.7 |
| 20260506134550 | 59 | 201 | 4.0 | 11.0 | 0.08 | 0.11 | 0.11 | 88 | 1009.1 |
| 20260506133109 | 60 | 228 | 4.0 | 11.0 | 0.09 | 0.10 | 0.10 | 88 | 1009.1 |
| 20260506131555 | 59 | 209 | 4.0 | 12.0 | 0.08 | 0.08 | 0.08 | 87 | 1009.4 |
| 20260506130119 | 60 | 244 | 3.0 | 6.0 | 0.06 | 0.06 | 0.06 | 86 | 1009.1 |
| 20260506124553 | 60 | 219 | 4.0 | 10.0 | 0.03 | 0.03 | 0.03 | 84 | 1009.2 |
| 20260506123053 | 61 | 255 | 2.0 | 9.0 | 0.01 | 0.01 | 0.01 | 83 | 1009.2 |
| 20260506121551 | 61 | 246 | 3.0 | 13.0 | 0.00 | 0.00 | 0.00 | 80 | 1009.2 |
| 20260506120052 | 62 | 270 | 8.0 | 15.0 | 0.00 | 0.00 | 0.00 | 77 | 1009.7 |
| 20260506114603 | 63 | 255 | 5.0 | 14.0 | 0.00 | 0.00 | 0.00 | 75 | 1009.6 |
| 20260506113100 | 63 | 245 | 4.0 | 9.0 | 0.00 | 0.00 | 0.00 | 74 | 1009.2 |
| 20260506111559 | 63 | 237 | 6.0 | 12.0 | 0.00 | 0.00 | 0.00 | 74 | 1009.0 |